sat.trackr.live / text

‹ back to catalog

STARLINK-31628

NORAD 59342 · 2024-057Y

PAYLOAD ACTIVE UNKNOWN

§ Identity

Operator
Country
US
Launch date
2024-03-25
Launch site
AFETR
Launch vehicle
Mass (kg)
RCS (m²)

Purposes: comms

External: N2YO · Heavens-Above · Gunter

§ Orbital elements

Epoch: 2026-09-20T10:49:00.783264Z

Period
94.27 min
Inclination
43.0092°
Eccentricity
0.0002437
Mean motion
15.27578955 rev/d
Perigee alt
481.4 km
Apogee alt
484.7 km
Semi-major
6,861.2 km
B*
1.2774e-5
RAAN
167.3016°
Arg perigee
263.3831°
Mean anomaly
96.6743°
Rev number
13,962

§ Raw data

STARLINK-316281 59342U 24057Y   26263.45070351  .00000089  00000+0  12774-4 0  99962 59342  43.0092 167.3016 0002437 263.3831  96.6743 15.27578955139629

JSON: /api/v1/satellites/59342 · /tle

For live sub-satellite position, see the globe view (requires WebGL).

§ Visibility from observer

Set your observer location to see the next 7 days of passes ≥ 10°. The values pass through the URL so the page stays shareable.

No JS? Fill the form by hand. The geolocation button needs JavaScript.